Date String (YYYY-MM-DD hh:mm:ss) UTC,Instrument flags,Ambient pressure (hPa),Sample flow (lpm),Bypass flow (lpm),Sample temperature (°C),Ambient temperature (°C),ASC tube jacket temperature (°C),LED temperature (°C),Box temperature (°C),Sample RH (%),Span deviation,Mass concentration (μg/m³),Mass concentration (μg/m³),Mass concentration (μg/m³)
DateTimeUTC,F1_M11,P_M11,Q1_M11,Q2_M11,T1_M11,T2_M11,T3_M11,T4_M11,T5_M11,U1_M11,ZSPAN_M11,X0_M11,X2_M11,X1_M11
2022-11-03 04:00:00,,0817.0,4.99,0.00,29.2,27.6,00.0,38.1,30.9,06.8,0000.0,0006.65,0002.13,0001.48
2022-11-03 04:01:00,,0817.0,4.99,0.00,29.2,27.5,00.0,38.1,30.9,06.8,0000.0,0006.34,0002.13,0001.47
2022-11-03 04:02:00,,0817.0,5.01,0.00,29.2,27.5,00.0,38.1,30.9,06.9,0000.0,0005.35,0002.11,0001.47
2022-11-03 04:03:00,,0817.1,4.99,0.00,29.2,27.5,00.0,38.1,30.9,06.9,0000.0,0005.62,0002.12,0001.47
2022-11-03 04:04:00,,0817.0,4.99,0.00,29.2,27.5,00.0,38.1,30.9,06.9,0000.0,0006.26,0002.10,0001.47
2022-11-03 04:05:00,,0817.0,5.00,0.00,29.2,27.6,00.0,38.1,30.9,06.9,0000.0,0006.24,0002.09,0001.46
2022-11-03 04:06:00,,0817.0,5.00,0.00,29.2,27.5,00.0,38.1,30.9,06.9,0000.0,0006.17,0002.07,0001.46
2022-11-03 04:07:00,,0817.0,5.01,0.00,29.2,27.6,00.0,38.0,31.0,06.9,0000.0,0006.15,0002.01,0001.45
2022-11-03 04:08:00,,0817.0,5.00,0.00,29.2,27.6,00.0,38.1,30.9,06.9,0000.0,0007.15,0002.03,0001.45
2022-11-03 04:09:00,,0817.0,4.99,0.00,29.1,27.5,00.0,38.1,30.9,06.9,0000.0,0007.26,0002.07,0001.45
2022-11-03 04:10:00,,0816.9,4.99,0.00,29.1,27.5,00.0,38.0,30.9,06.9,0000.0,0006.79,0002.04,0001.46
2022-11-03 04:11:00,,0817.0,5.01,0.00,29.1,27.5,00.0,38.0,30.9,06.9,0000.0,0005.98,0002.02,0001.46
2022-11-03 04:12:00,,0817.1,5.01,0.00,29.1,27.5,00.0,38.0,30.9,06.9,0000.0,0006.35,0002.09,0001.45
2022-11-03 04:13:00,,0816.9,5.00,0.00,29.1,27.5,00.0,38.0,30.9,06.9,0000.0,0006.66,0002.17,0001.46
2022-11-03 04:14:00,,0817.3,5.00,0.00,29.1,27.5,00.0,38.0,30.9,06.9,0000.0,0007.22,0002.23,0001.47
2022-11-03 04:15:00,,0817.3,5.00,0.00,29.1,27.5,00.0,38.0,30.9,06.9,0000.0,0007.42,0002.27,0001.48
2022-11-03 04:16:00,,0817.0,5.00,0.00,29.1,27.5,00.0,38.0,30.9,06.9,0000.0,0007.47,0002.33,0001.51
2022-11-03 04:17:00,,0816.9,5.00,0.00,29.1,27.4,00.0,38.0,30.9,06.9,0000.0,0007.68,0002.43,0001.53
2022-11-03 04:18:00,,0816.9,5.00,0.00,29.1,27.4,00.0,38.0,30.8,06.9,0000.0,0007.88,0002.48,0001.55
2022-11-03 04:19:00,,0816.9,5.00,0.00,29.1,27.4,00.0,38.0,30.8,06.9,0000.0,0007.55,0002.53,0001.56
2022-11-03 04:20:00,,0816.9,5.00,0.00,29.1,27.4,00.0,38.0,30.8,07.0,0000.0,0007.88,0002.51,0001.56
2022-11-03 04:21:00,,0816.9,5.02,0.00,29.1,27.4,00.0,38.0,30.8,07.0,0000.0,0007.94,0002.49,0001.56
2022-11-03 04:22:00,,0816.9,5.01,0.00,29.0,27.4,00.0,38.0,30.8,07.0,0000.0,0007.91,0002.48,0001.58
2022-11-03 04:23:00,,0817.2,4.99,0.00,29.0,27.3,00.0,38.0,30.8,07.0,0000.0,0008.31,0002.43,0001.59
2022-11-03 04:24:00,,0817.2,4.99,0.00,29.0,27.3,00.0,37.9,30.8,07.0,0000.0,0009.10,0002.41,0001.59
2022-11-03 04:25:00,,0816.9,5.00,0.00,29.0,27.3,00.0,37.9,30.8,07.0,0000.0,0009.78,0002.36,0001.60
2022-11-03 04:26:00,,0816.9,5.00,0.00,29.0,27.3,00.0,37.9,30.8,07.0,0000.0,0009.55,0002.33,0001.61
2022-11-03 04:27:00,,0816.9,5.00,0.00,29.0,27.3,00.0,37.9,30.8,07.0,0000.0,0009.77,0002.30,0001.60
2022-11-03 04:28:00,,0816.8,5.00,0.00,29.0,27.3,00.0,37.9,30.8,07.0,0000.0,0009.96,0002.27,0001.62
2022-11-03 04:29:00,,0816.8,5.01,0.00,29.0,27.3,00.0,37.9,30.8,07.0,0000.0,0010.06,0002.27,0001.64
2022-11-03 04:30:00,,0816.9,5.00,0.00,29.0,27.3,00.0,37.9,30.8,07.0,0000.0,0010.07,0002.26,0001.66
2022-11-03 04:31:00,,0816.9,5.00,0.00,29.0,27.3,00.0,37.9,30.7,07.0,0000.0,0009.49,0002.24,0001.67
2022-11-03 04:32:00,,0816.8,5.00,0.00,29.0,27.3,00.0,37.9,30.7,07.0,0000.0,0009.59,0002.30,0001.69
2022-11-03 04:33:00,,0816.7,5.00,0.00,29.0,27.3,00.0,37.9,30.7,07.0,0000.0,0009.90,0002.35,0001.71
2022-11-03 04:34:00,,0816.8,5.00,0.00,29.0,27.3,00.0,37.9,30.7,07.0,0000.0,0010.22,0002.38,0001.72
2022-11-03 04:35:00,,0816.8,5.00,0.00,28.9,27.3,00.0,37.9,30.7,07.0,0000.0,0009.97,0002.38,0001.74
2022-11-03 04:36:00,,0816.8,5.01,0.00,28.9,27.3,00.0,37.9,30.7,07.0,0000.0,0009.07,0002.41,0001.74
2022-11-03 04:37:00,,0816.8,4.99,0.00,28.9,27.3,00.0,37.9,30.7,07.0,0000.0,0008.89,0002.44,0001.74
2022-11-03 04:38:00,,0816.8,4.99,0.00,28.9,27.3,00.0,37.9,30.7,07.0,0000.0,0008.27,0002.43,0001.73
2022-11-03 04:39:00,,0816.9,5.00,0.00,28.9,27.2,00.0,37.8,30.7,07.0,0000.0,0008.03,0002.47,0001.73
2022-11-03 04:40:00,,0816.9,5.00,0.00,28.9,27.3,00.0,37.8,30.7,07.0,0000.0,0008.00,0002.52,0001.72
2022-11-03 04:41:00,,0816.9,5.01,0.00,28.9,27.3,00.0,37.8,30.7,07.0,0000.0,0008.28,0002.60,0001.72
2022-11-03 04:42:00,,0816.9,5.01,0.00,28.9,27.2,00.0,37.8,30.7,07.0,0000.0,0008.65,0002.64,0001.74
2022-11-03 04:43:00,,0816.8,5.01,0.00,28.9,27.2,00.0,37.8,30.7,07.0,0000.0,0009.19,0002.59,0001.74
2022-11-03 04:44:00,,0816.9,5.00,0.00,28.9,27.2,00.0,37.8,30.7,07.0,0000.0,0009.05,0002.58,0001.73
2022-11-03 04:45:00,,0817.3,5.00,0.00,28.9,27.2,00.0,37.8,30.6,07.0,0000.0,0008.60,0002.63,0001.74
2022-11-03 04:46:00,,0817.4,5.00,0.00,28.9,27.2,00.0,37.8,30.6,07.0,0000.0,0007.79,0002.65,0001.75
2022-11-03 04:47:00,,0817.3,5.00,0.00,28.9,27.2,00.0,37.8,30.6,07.0,0000.0,0007.74,0002.66,0001.75
2022-11-03 04:48:00,,0817.3,5.00,0.00,28.8,27.2,00.0,37.8,30.6,07.0,0000.0,0007.56,0002.60,0001.75
2022-11-03 04:49:00,,0817.1,5.00,0.00,28.8,27.2,00.0,37.8,30.6,07.0,0000.0,0007.65,0002.66,0001.76
2022-11-03 04:50:00,,0817.0,5.00,0.00,28.8,27.2,00.0,37.8,30.6,07.0,0000.0,0007.71,0002.67,0001.77
2022-11-03 04:51:00,,0816.8,5.01,0.00,28.8,27.2,00.0,37.8,30.6,07.0,0000.0,0007.50,0002.61,0001.78
2022-11-03 04:52:00,,0816.8,5.00,0.00,28.8,27.2,00.0,37.7,30.6,07.0,0000.0,0006.99,0002.57,0001.79
2022-11-03 04:53:00,,0816.8,5.00,0.00,28.8,27.1,00.0,37.7,30.6,07.0,0000.0,0006.68,0002.57,0001.78
2022-11-03 04:54:00,,0816.9,4.99,0.00,28.8,27.1,00.0,37.7,30.6,07.0,0000.0,0005.42,0002.63,0001.78
2022-11-03 04:55:00,,0816.8,5.00,0.00,28.8,27.1,00.0,37.7,30.5,07.0,0000.0,0005.12,0002.61,0001.77
2022-11-03 04:56:00,,0816.9,5.01,0.00,28.8,27.1,00.0,37.7,30.5,07.0,0000.0,0004.92,0002.55,0001.76
2022-11-03 04:57:00,,0816.8,5.00,0.00,28.8,27.1,00.0,37.7,30.5,07.0,0000.0,0004.86,0002.51,0001.76
2022-11-03 04:58:00,,0816.8,4.99,0.00,28.8,27.1,00.0,37.7,30.5,07.0,0000.0,0004.88,0002.50,0001.76
2022-11-03 04:59:00,,0817.3,5.00,0.00,28.8,27.1,00.0,37.7,30.5,07.0,0000.0,0005.00,0002.54,0001.76
